Theta_e
285 281 281 283 285 286 285 285 284 282 284 282 282 284 287 283 282 281 286 283 282 285 286 288 287 286 288 289 289 288 288 287 287 287 289 288 289 289 288 287 287 287 288 289 288 287 287 287 287 287 287 288 288 287 287 288 287 288 287 288 288 288 288 288 289 288 289 289 289 289 288 289 288 289 289 289 289 289 289 289 290 290 291 291 291 292 292
284 281 281 282 285 283 283 285 284 285 284 283 285 286 287 286 284 286 285 282 285 288 286 289 290 287 287 285 285 286 287 289 290 288 288 288 290 290 290 289 289 288 288 287 287 287 287 287 287 287 288 288 287 288 288 288 288 288 287 288 288 287 287 288 288 288 288 287 288 288 288 288 288 288 288 288 288 288 289 289 289 290 290 290 290 291 291
281 281 280 281 282 283 281 282 284 285 285 285 286 287 287 286 286 286 285 283 283 289 286 286 287 288 287 287 287 288 288 287 288 289 290 290 290 291 289 288 288 288 287 287 287 288 288 287 287 287 287 287 287 288 288 288 288 287 286 287 287 287 288 288 287 287 287 287 287 288 288 288 288 288 288 288 288 288 288 288 289 289 289 289 290 290 291
277 279 280 280 279 280 280 280 281 283 283 282 284 284 286 284 283 285 284 283 285 289 288 289 290 287 287 288 288 288 290 290 289 289 290 290 290 290 289 288 287 287 286 286 287 287 287 287 287 287 287 287 287 288 287 287 287 286 286 287 287 288 287 288 288 288 288 288 289 289 288 289 288 288 287 287 288 288 288 288 288 288 288 289 289 290 290
277 277 280 278 278 277 275 279 282 284 285 286 286 286 285 286 288 284 282 284 290 290 287 289 286 287 288 288 289 290 290 290 290 290 291 291 289 287 288 288 287 286 286 287 287 287 286 286 286 287 286 287 287 286 286 286 285 286 287 286 287 288 288 288 288 288 288 288 288 289 288 288 288 288 288 288 288 288 289 289 288 288 289 289 289 289 289
273 274 277 278 277 272 276 287 288 286 285 285 283 284 286 287 287 287 290 290 292 289 285 288 287 287 289 291 291 290 291 291 290 289 288 287 286 286 285 285 285 286 286 286 286 286 286 286 286 286 286 286 286 286 285 286 286 286 286 287 287 287 287 287 287 287 287 287 287 287 287 287 287 287 287 288 288 288 287 288 288 288 288 288 289 289 289
276 273 277 276 273 276 286 285 287 288 288 288 287 288 288 289 289 289 288 288 289 290 290 290 290 289 289 286 287 287 285 286 288 289 287 285 286 286 285 285 285 285 286 285 286 286 285 286 286 285 286 285 285 286 285 286 285 286 287 287 287 287 287 287 287 287 286 286 286 286 286 286 286 286 286 287 287 287 287 287 288 288 288 288 289 289 289
276 273 274 273 274 281 282 283 285 286 287 287 286 285 287 287 287 289 288 290 292 292 292 291 287 288 286 286 284 283 284 284 285 285 285 285 285 285 285 285 284 285 285 285 285 286 285 285 286 285 285 285 285 285 285 285 286 286 286 287 286 286 286 286 286 286 286 286 286 286 285 285 285 285 286 286 286 287 287 287 287 287 287 287 287 287 288
278 276 277 277 280 281 282 285 284 286 283 283 283 281 285 289 289 289 289 291 291 292 292 291 286 286 287 289 287 284 283 284 284 285 284 284 284 284 284 284 284 284 284 285 285 285 285 285 285 284 284 284 284 285 285 285 285 286 286 285 285 285 285 286 286 286 285 285 285 285 285 285 285 285 285 286 286 286 286 286 286 287 286 287 287 287 287
282 276 273 276 276 276 281 286 285 287 287 289 289 286 284 287 289 290 290 289 291 291 290 288 286 286 288 286 285 284 283 283 284 284 284 284 284 284 284 284 284 284 284 285 285 285 284 284 284 284 284 284 284 285 285 285 285 285 284 284 285 285 285 285 285 285 285 285 284 284 284 284 285 285 285 285 285 285 285 286 286 286 286 287 287 287 287
282 279 277 276 275 278 285 285 285 286 284 289 286 284 282 286 284 288 289 289 290 289 289 288 286 287 284 286 283 284 282 282 283 284 283 283 283 284 284 284 284 284 284 284 284 284 284 284 284 283 283 284 284 284 284 284 284 283 283 284 284 284 284 285 285 284 284 284 284 283 283 284 284 284 284 285 285 285 285 285 285 286 286 286 286 286 286
283 281 279 277 279 280 284 284 285 284 283 290 288 278 278 288 281 281 285 289 289 289 286 286 286 287 284 286 284 283 282 282 283 283 283 283 283 283 283 283 283 283 284 284 283 283 283 283 283 283 283 284 283 283 283 284 283 283 283 283 284 284 284 284 285 285 284 283 283 283 283 283 284 284 284 284 284 284 285 285 285 286 286 285 285 286 286
284 284 282 282 282 283 282 284 286 284 287 290 283 279 285 284 280 282 282 283 283 282 283 286 286 283 283 284 284 283 283 283 283 282 282 282 283 283 282 282 283 282 283 283 283 282 283 283 283 283 283 283 283 284 284 283 282 282 283 284 284 284 284 284 284 284 284 284 283 284 284 284 284 283 284 284 284 283 283 284 284 284 284 285 285 285 286
283 284 282 283 284 284 286 282 284 285 289 282 281 286 282 281 281 281 282 282 281 282 284 282 282 282 282 282 282 282 282 282 282 282 282 282 282 282 282 282 282 282 282 283 282 282 283 283 283 284 283 283 283 283 283 281 281 282 283 283 283 283 282 282 283 283 283 283 284 283 284 284 283 283 284 283 283 283 283 283 282 282 283 284 284 285 286
284 283 281 280 277 287 287 286 286 288 285 285 287 284 283 281 281 281 281 282 283 283 282 283 283 282 282 282 282 281 281 281 281 281 281 281 281 281 281 281 281 282 282 282 282 282 282 283 283 283 283 282 282 282 280 280 281 282 282 282 281 281 281 281 281 282 282 282 282 283 283 283 283 283 283 283 282 282 281 281 281 281 282 283 283 284 285
279 281 278 280 286 287 288 291 287 288 289 287 285 286 283 284 282 282 282 281 282 283 283 282 282 282 281 281 281 281 281 281 281 281 281 281 281 281 281 281 280 280 281 281 281 281 281 281 281 281 280 280 280 279 279 280 280 280 280 279 279 279 279 279 279 280 280 280 281 282 282 282 282 282 282 283 282 282 281 281 281 281 282 283 283 283 283
283 281 284 286 283 286 284 283 285 285 286 287 287 287 286 284 283 281 283 282 282 283 283 283 282 281 281 281 281 281 281 281 281 281 280 280 280 280 279 279 280 281 280 279 279 279 279 278 279 279 279 278 278 277 278 279 279 278 277 277 277 276 277 277 277 278 278 279 280 280 281 282 281 281 281 282 281 282 281 280 281 281 281 282 282 282 283
282 286 285 284 283 283 281 282 282 282 284 285 286 287 286 284 284 284 284 283 283 282 283 282 281 282 282 281 281 281 281 281 281 281 280 279 279 279 279 278 278 278 278 277 276 276 276 276 276 277 277 277 276 276 277 278 277 275 274 273 274 274 274 275 275 276 276 277 279 280 280 281 281 281 281 281 281 281 281 281 281 280 281 281 282 282 282
285 282 282 282 283 282 282 283 282 281 282 283 284 285 287 286 284 283 284 284 284 283 284 285 284 282 282 281 281 282 282 282 282 280 279 278 277 276 276 276 276 275 275 274 274 273 273 274 275 275 276 277 277 277 277 275 274 273 272 271 271 272 272 272 273 275 275 276 277 278 279 280 280 280 280 280 280 280 280 280 280 280 281 281 281 282 282
283 280 281 282 283 283 283 282 282 283 282 281 281 282 283 284 283 283 282 281 281 281 281 283 283 283 283 282 281 281 281 281 280 277 276 275 275 275 275 274 274 273 272 271 271 272 272 273 273 274 275 276 276 275 274 273 272 271 270 270 269 269 270 271 272 273 274 275 275 276 277 277 278 278 279 280 279 279 280 280 280 280 280 281 281 281 282
279 280 282 283 284 282 281 281 282 282 282 282 281 282 283 283 282 281 279 279 280 281 281 282 282 280 279 279 279 279 279 278 276 274 273 273 273 273 273 272 272 270 270 270 270 270 270 272 272 273 274 275 274 273 272 271 271 269 268 269 268 268 269 270 270 271 272 272 273 274 275 276 277 278 278 278 279 279 281 281 281 280 280 280 281 281 282
277 282 282 284 283 280 285 284 285 282 282 282 281 281 281 281 280 279 278 277 277 276 277 278 279 278 276 275 275 275 276 274 272 272 272 272 272 271 271 270 270 269 269 269 269 269 269 271 271 272 274 273 272 272 271 270 269 267 267 266 267 267 268 268 268 269 270 271 272 273 273 273 274 276 278 280 280 279 279 282 283 284 284 282 282 283 282
281 284 284 287 288 285 284 288 285 282 282 281 280 281 281 281 281 280 277 276 275 275 274 275 276 276 274 273 273 273 272 269 269 270 269 269 269 269 269 268 267 267 267 268 268 268 268 270 270 272 272 271 270 270 269 268 267 265 265 265 265 265 266 266 267 268 269 269 270 271 272 272 273 274 275 277 279 281 281 281 282 283 284 284 284 285 284
281 282 286 287 286 286 282 283 284 281 280 280 279 280 280 280 279 278 278 278 276 273 272 271 271 271 271 271 272 271 269 268 268 268 268 268 267 267 267 265 265 265 266 266 266 267 268 269 270 271 269 269 269 268 268 266 265 263 263 263 263 263 264 265 266 267 268 269 269 270 271 272 272 273 273 273 275 279 281 281 282 283 283 284 284 284 285
286 281 283 286 284 278 279 279 281 280 279 280 279 278 277 276 275 275 274 274 274 273 270 268 267 268 268 268 268 268 267 267 266 266 266 266 266 265 264 263 263 264 264 265 266 266 268 269 269 268 267 267 268 267 265 264 262 261 261 261 261 262 263 264 265 266 267 267 268 269 269 270 271 272 272 272 273 274 277 280 281 282 283 283 284 284 285
278 277 275 274 275 276 277 278 277 276 277 277 275 274 273 273 273 272 270 270 270 270 269 267 265 265 266 266 265 265 265 265 265 265 263 262 263 262 261 261 262 263 264 264 265 266 267 266 265 264 264 265 265 264 262 261 260 259 260 260 261 262 263 263 264 264 265 266 266 267 268 269 270 271 271 272 272 273 274 275 278 280 282 283 283 284 284
277 278 280 279 276 274 277 281 281 279 276 274 273 272 271 271 271 269 268 267 266 266 266 265 264 264 263 263 262 263 262 262 261 262 261 260 260 261 260 261 262 262 262 263 264 267 265 263 262 261 261 262 263 261 260 259 258 258 259 260 261 262 263 264 263 263 264 265 266 266 267 268 269 270 270 272 273 273 274 274 275 276 277 279 282 283 283
277 279 278 284 278 277 278 277 272 276 273 272 271 270 269 268 267 266 264 264 263 262 261 261 261 261 261 261 260 261 260 259 259 259 259 260 260 261 260 260 261 260 260 261 264 264 262 260 260 259 259 260 261 259 258 258 258 258 259 260 260 261 261 262 263 263 264 265 266 266 266 267 268 269 271 272 272 273 275 276 276 276 277 279 280 282 283
277 275 267 268 274 278 274 271 271 271 268 268 268 268 267 266 265 265 264 263 263 262 260 260 260 260 261 260 260 259 259 259 258 258 258 259 259 259 259 258 258 257 257 260 261 260 259 258 258 257 258 259 259 258 257 257 258 258 259 260 260 260 261 261 262 263 264 265 265 266 267 268 268 269 270 271 273 274 275 276 276 277 277 278 279 280 282
271 267 268 269 270 272 273 271 270 269 267 266 266 265 266 266 265 265 264 262 262 261 261 259 259 259 259 258 258 257 257 256 257 257 258 259 259 258 258 258 257 257 257 258 257 257 256 256 256 256 257 258 258 257 257 257 258 259 259 260 260 260 260 261 262 263 263 264 265 266 266 267 268 269 269 270 272 273 274 274 275 275 276 277 278 278 278
266 266 267 268 269 271 275 273 270 268 266 265 266 265 264 265 267 266 263 262 262 261 260 258 258 257 256 256 257 257 257 257 257 257 257 257 257 258 257 256 255 254 256 256 256 255 255 255 255 256 257 257 256 256 257 258 259 259 259 260 260 261 262 263 263 263 264 264 265 265 266 267 267 268 269 270 271 272 272 273 273 274 275 276 277 278 279
267 264 264 264 265 267 266 267 268 266 265 265 264 265 265 265 267 267 264 262 261 260 258 257 256 257 257 257 256 256 256 256 255 255 255 255 256 255 255 255 254 256 254 255 255 255 254 254 254 256 256 256 256 257 257 258 258 258 258 260 260 260 261 263 263 263 264 264 265 265 266 266 267 268 269 270 270 271 272 272 272 273 274 275 276 277 279
269 266 265 262 261 262 264 265 266 265 264 263 266 268 267 266 265 265 264 262 259 258 257 256 257 256 256 256 255 254 254 253 254 255 254 255 255 255 254 254 253 253 253 254 254 254 254 254 255 256 256 256 257 258 257 257 258 258 259 260 260 261 262 263 263 263 264 264 265 265 266 267 268 269 269 270 270 271 271 271 272 273 274 275 276 277 279
276 278 278 274 272 272 269 267 265 266 265 264 264 263 263 261 260 261 259 258 257 256 256 256 255 254 254 254 253 252 252 253 252 253 253 253 253 252 252 254 252 251 252 253 254 254 253 254 254 255 256 257 257 257 257 257 258 259 259 260 260 261 261 262 263 263 263 264 265 266 267 267 267 267 268 268 269 269 270 270 271 272 273 275 276 278 277
280 281 280 278 275 277 276 274 268 267 266 264 261 260 260 258 257 257 257 256 256 255 255 255 255 254 253 252 251 252 252 252 253 253 252 252 252 252 252 251 250 251 253 252 252 252 253 254 254 255 257 257 257 256 256 257 259 260 260 260 261 261 261 262 262 263 263 264 265 265 265 265 265 266 266 267 266 267 267 268 269 270 271 272 273 274 274
273 269 267 272 273 270 270 271 270 269 267 266 265 262 259 257 255 256 256 255 255 256 255 254 253 252 252 251 251 252 252 252 252 252 251 251 251 252 252 249 250 249 251 252 253 253 254 254 257 259 258 257 257 256 257 258 260 260 260 260 260 261 261 262 262 262 263 263 263 263 264 264 265 265 265 265 265 265 265 265 266 267 268 269 268 269 268
266 272 270 270 271 269 268 269 269 267 266 265 262 259 256 255 255 255 255 254 254 254 253 252 252 252 251 252 252 251 250 252 252 252 252 252 251 250 251 249 250 251 251 249 253 255 254 256 258 258 257 255 255 255 257 260 260 260 259 258 259 260 260 260 261 261 261 261 262 262 263 263 262 263 264 263 263 263 264 264 264 265 265 265 265 265 265
261 263 263 263 263 264 262 260 263 264 261 258 255 256 256 255 254 253 253 253 253 253 252 252 252 252 253 252 251 251 251 251 251 250 251 249 250 249 249 249 249 250 249 248 251 253 253 256 258 257 253 254 254 255 257 260 260 258 256 257 258 259 259 259 259 260 260 260 261 260 260 261 261 261 262 262 262 262 262 262 263 263 263 263 263 263 262
255 254 255 255 256 256 255 255 258 260 261 260 256 255 254 253 253 253 253 252 252 253 252 252 252 251 251 252 252 250 250 250 250 246 246 245 247 248 249 249 249 250 250 251 251 252 254 256 255 253 253 253 254 255 258 259 259 257 256 256 256 257 258 258 258 259 259 259 259 259 259 260 260 260 260 261 261 261 261 262 261 262 261 261 261 261 262
256 255 255 255 255 255 255 255 255 255 255 257 256 254 253 253 253 253 252 252 252 253 252 252 252 252 251 250 249 249 248 247 246 246 245 245 246 246 247 247 246 244 247 255 253 251 254 257 253 250 251 253 255 256 258 259 258 256 255 255 255 256 257 258 258 257 257 258 258 259 258 258 259 259 260 260 260 260 260 260 260 260 260 260 260 260 261
256 255 254 255 255 255 255 254 253 252 253 253 253 253 254 253 253 252 252 252 252 252 251 252 251 251 250 250 249 248 245 246 246 245 244 245 246 247 247 247 248 247 249 250 252 253 255 254 252 251 252 253 254 257 257 258 256 253 254 254 255 255 255 256 256 256 256 257 257 257 257 258 258 258 258 259 259 259 259 259 259 259 259 259 259 260 260
253 253 253 253 254 253 253 252 252 252 251 252 252 252 252 253 253 253 253 252 251 251 250 249 252 251 249 247 247 246 246 244 243 243 244 248 247 246 247 247 247 248 254 255 254 253 250 248 250 253 252 253 255 257 258 256 253 252 253 253 254 255 255 255 255 255 256 256 256 255 256 257 257 257 258 258 258 258 258 258 258 258 258 258 258 259 259
252 253 253 253 252 252 252 252 253 252 251 251 251 251 251 252 252 252 251 251 251 251 251 251 252 251 249 247 247 247 247 245 245 244 244 244 245 246 248 247 246 248 254 253 251 248 249 248 249 248 255 256 256 257 257 253 251 251 251 252 254 254 254 254 254 255 254 254 254 255 255 256 256 256 256 256 257 257 257 257 257 257 258 258 258 258 258
253 253 253 252 252 252 253 253 252 252 251 250 250 250 250 251 251 251 250 250 250 250 249 248 247 246 246 246 247 247 246 245 246 244 244 245 246 246 244 244 247 250 254 252 250 250 248 249 249 253 256 256 256 257 254 250 249 250 250 251 252 252 253 253 253 253 253 254 254 254 254 256 256 256 256 256 256 256 256 257 257 257 257 257 257 257 257
252 252 252 252 252 252 253 252 252 252 251 250 249 250 250 250 250 251 251 251 250 249 248 247 246 246 245 245 246 245 244 244 244 244 246 247 248 249 247 251 250 249 252 254 251 250 248 249 252 255 255 256 256 256 250 248 249 250 249 251 250 251 251 252 253 252 253 253 254 254 255 255 255 256 256 256 256 256 256 256 256 257 256 256 257 256 256
251 251 251 252 252 252 253 253 252 251 250 250 250 250 250 250 249 249 250 250 249 248 247 246 246 246 244 244 242 241 240 241 243 244 245 244 246 246 247 251 249 251 252 253 250 250 248 253 254 254 255 255 255 251 247 248 249 247 248 249 249 251 250 250 251 252 252 253 253 254 254 254 254 255 255 255 256 256 256 256 256 256 256 256 256 256 256
251 251 251 251 251 251 251 251 251 251 251 251 250 249 248 248 248 248 248 247 246 243 243 243 243 243 242 243 244 244 245 245 244 242 244 241 245 247 249 250 250 251 252 250 249 248 249 251 253 254 254 254 254 246 246 246 246 246 247 247 249 248 250 249 250 250 251 251 253 254 254 254 254 254 254 255 255 255 255 255 255 255 255 255 255 256 255
252 252 251 251 250 250 251 251 251 251 252 252 251 250 248 247 247 245 243 244 244 242 242 241 241 240 239 239 240 242 243 245 246 247 243 242 243 244 244 243 247 250 251 252 252 252 253 252 253 253 253 253 250 244 245 244 245 246 245 247 247 247 247 248 248 249 250 251 251 250 251 251 251 252 253 253 253 254 254 254 254 254 254 254 254 255 254
251 250 250 250 250 251 251 252 252 252 251 251 250 248 247 246 245 245 243 243 242 244 243 241 241 240 241 243 243 240 240 244 245 246 243 242 244 244 245 247 249 250 250 248 248 247 250 251 251 251 251 251 245 244 244 244 246 247 248 248 247 247 248 248 248 248 249 249 250 250 250 250 250 250 251 251 252 252 253 253 253 253 253 253 253 254 254
250 250 250 250 250 251 251 252 252 252 250 249 249 248 247 248 248 245 244 244 244 245 241 241 240 240 239 239 240 239 240 242 243 243 243 243 242 243 245 245 246 249 250 249 245 248 249 250 249 249 249 245 246 245 245 246 245 246 247 249 249 247 249 250 252 252 251 250 249 250 250 250 249 250 251 250 251 251 251 251 251 252 253 253 252 252 252
250 251 251 251 251 250 251 251 251 249 249 249 248 248 248 248 248 247 245 243 243 245 244 243 241 240 239 239 238 238 240 241 242 247 245 244 244 247 248 247 246 248 248 248 246 246 245 244 244 246 247 247 246 245 245 246 246 248 249 248 247 248 248 249 249 248 248 249 249 249 249 249 249 248 248 249 250 250 250 250 250 250 250 250 250 250 250
249 248 247 247 247 246 245 245 246 247 247 247 248 247 246 247 247 245 245 248 243 244 242 244 247 242 238 239 243 241 240 242 243 243 246 245 245 243 246 248 245 246 245 245 244 244 244 245 247 248 248 247 246 246 248 249 248 248 247 248 249 248 248 248 248 248 248 248 248 247 248 248 247 247 247 248 248 248 248 248 248 248 248 248 248 248 248
Wind_Speed
10 2 5 6 6 8 10 13 12 12 13 11 14 15 17 9 10 17 17 6 10 15 9 10 9 7 6 6 6 6 4 3 2 1 2 3 5 5 3 2 2 3 3 3 3 4 4 5 5 5 6 6 6 4 3 5 5 5 5 3 3 3 2 2 4 5 5 5 5 5 6 7 7 6 5 5 5 4 5 6 6 7 7 7 7 8 8
9 2 5 3 8 2 3 10 14 16 16 17 19 18 18 15 15 17 11 8 16 16 8 12 8 7 6 3 1 1 1 4 1 1 4 5 7 8 3 3 3 3 3 3 2 2 3 4 4 5 5 5 4 4 5 5 5 5 5 3 2 2 1 3 4 4 4 4 4 5 6 6 5 4 4 4 4 5 5 5 6 6 6 7 7 8 8
7 5 3 2 4 6 5 4 9 12 15 17 19 18 18 15 14 14 9 6 15 12 8 7 6 6 5 0 1 4 6 5 5 6 6 7 7 9 1 2 2 3 1 1 4 7 6 7 6 5 4 4 5 5 6 6 6 6 5 6 4 2 2 3 3 3 2 3 4 2 4 4 5 5 5 5 5 5 5 5 6 6 6 6 7 7 8
5 2 9 5 3 2 2 3 7 10 13 14 15 16 10 7 10 12 9 12 17 10 12 7 9 5 5 8 7 7 8 9 8 7 7 7 9 5 0 1 1 1 3 5 5 5 6 6 6 6 6 6 6 6 6 7 7 6 6 5 4 3 3 3 3 4 4 5 6 7 7 8 7 6 6 6 6 6 6 6 5 4 6 7 7 7 7
6 1 6 7 5 3 3 8 13 21 20 17 7 5 2 10 14 12 10 18 19 6 6 7 2 6 8 8 9 11 10 8 7 9 11 8 4 4 1 1 2 3 4 5 5 5 5 6 6 6 5 6 6 6 6 6 6 6 6 6 6 6 7 7 7 7 7 8 8 8 9 8 8 8 8 8 8 8 8 7 6 7 7 7 8 7 7
2 1 7 5 8 8 12 13 18 16 15 14 8 9 15 14 11 10 15 16 14 5 5 8 7 9 10 10 7 3 5 7 8 7 4 1 0 2 2 2 3 4 5 5 5 4 3 4 4 5 3 4 5 5 5 4 4 4 4 5 5 6 5 6 7 7 7 8 8 8 8 8 8 8 8 8 8 7 7 7 7 8 8 8 8 8 8
3 2 5 6 9 12 9 1 6 14 15 14 19 19 18 16 14 13 12 11 13 13 10 11 10 5 5 3 2 3 4 2 4 5 2 4 6 6 5 6 5 5 4 4 4 5 6 5 4 4 4 4 5 4 3 4 4 5 5 5 7 6 6 6 6 7 7 7 7 8 8 7 7 6 8 8 7 6 5 7 8 8 8 8 9 8 9
5 3 4 6 9 6 2 1 2 3 8 9 10 13 12 7 8 14 16 19 20 17 14 6 4 5 4 4 7 6 5 5 3 2 6 6 7 8 5 5 4 5 4 5 4 4 2 4 4 4 5 4 4 4 3 5 6 6 6 7 9 9 9 9 9 8 7 7 7 7 7 7 6 7 7 7 8 7 6 6 6 6 7 6 9 10 10
7 6 9 7 3 6 3 4 3 10 9 8 11 11 14 16 15 15 17 20 18 16 13 6 4 3 3 2 1 7 5 6 7 8 7 7 7 6 5 5 5 3 3 4 4 2 3 4 5 5 4 2 1 3 6 6 6 7 8 10 10 10 9 9 9 9 8 9 9 9 8 7 7 7 7 8 7 5 7 7 7 7 8 7 7 8 9
5 5 3 0 2 9 9 8 1 2 6 12 13 10 7 4 10 15 16 17 17 16 10 5 4 4 2 6 5 3 4 3 7 7 6 6 6 6 5 4 5 5 4 4 3 4 3 5 5 3 2 2 4 7 7 7 8 9 10 10 9 9 9 9 9 8 8 8 8 8 8 8 8 7 7 6 6 5 6 8 8 8 8 8 8 8 10
6 5 6 6 7 9 9 6 4 4 4 11 7 5 12 5 4 10 14 17 15 10 10 6 8 5 6 10 2 1 2 3 3 8 6 6 6 5 5 5 6 4 3 4 3 3 5 10 7 5 4 5 7 9 7 7 8 10 10 9 9 10 9 8 7 7 7 7 6 7 7 8 7 8 8 8 8 6 6 7 9 8 7 8 9 8 8
5 6 7 9 4 4 2 2 1 3 4 9 10 7 8 8 2 1 4 12 14 12 4 5 7 8 8 10 6 3 3 3 3 5 6 6 5 6 5 5 4 3 2 2 6 10 10 8 6 7 5 6 8 8 7 6 9 10 9 9 8 8 8 8 7 7 6 6 6 6 8 8 7 7 7 7 7 7 7 6 8 8 7 8 10 10 7
12 12 7 3 5 3 3 4 1 4 7 11 11 16 5 2 1 1 4 3 2 4 5 6 7 3 2 4 9 6 4 5 5 4 4 4 4 5 6 6 3 4 4 6 8 6 5 5 6 6 6 7 9 7 6 8 10 9 8 7 8 8 8 8 8 7 6 6 8 7 6 7 8 7 6 7 8 7 9 8 7 9 10 9 10 12 9
13 12 14 12 4 5 8 1 6 4 7 8 12 3 1 5 3 0 2 5 2 3 5 3 5 7 5 7 7 7 5 6 5 4 3 3 4 3 4 5 5 4 4 5 5 6 6 7 7 7 6 7 7 7 7 9 9 8 7 8 7 8 8 8 8 8 8 8 7 8 8 7 9 9 6 6 7 8 7 8 10 11 10 9 10 12 12
1 2 7 3 9 5 8 9 2 1 4 4 4 6 1 1 4 6 3 4 5 7 7 7 11 10 7 7 7 5 5 5 6 4 4 5 5 5 6 8 8 6 6 7 7 7 7 7 8 7 7 8 8 6 8 9 8 8 9 9 9 9 9 9 10 10 9 10 10 8 9 9 9 11 10 8 9 7 7 9 9 10 11 10 10 12 13
8 11 10 8 4 5 7 11 9 7 7 4 7 9 5 3 3 5 6 2 3 6 14 12 10 9 9 6 6 6 4 4 4 4 4 3 4 4 5 6 6 5 6 6 6 7 7 8 8 8 8 8 7 8 9 9 8 9 9 10 10 10 10 10 11 11 11 11 9 9 9 10 10 10 11 10 9 8 7 8 9 11 11 9 9 11 12
7 4 5 1 1 3 1 1 1 1 2 4 7 5 8 9 5 3 6 8 6 9 13 11 11 9 5 8 7 6 5 5 5 5 4 5 5 6 6 7 7 6 7 7 7 6 7 9 8 8 9 8 9 10 10 9 10 11 12 12 12 11 11 11 11 12 12 11 11 10 9 9 11 11 12 10 11 10 7 7 8 9 11 10 10 11 11
0 1 2 2 1 1 2 1 1 1 1 0 4 10 9 4 7 9 11 10 11 10 11 14 5 8 9 8 5 5 6 5 5 5 5 5 5 5 5 6 7 6 6 6 7 8 8 10 9 8 9 9 11 10 10 10 11 12 12 13 12 13 12 11 12 12 13 13 11 10 11 9 8 8 10 11 10 11 9 8 8 9 10 10 11 11 11
6 6 3 3 2 1 1 1 2 2 0 1 2 4 7 9 8 6 6 13 13 13 11 13 13 11 9 10 7 6 5 5 5 5 5 5 6 6 7 8 7 6 7 7 8 8 8 9 8 8 7 7 7 8 8 10 10 11 10 11 10 9 10 11 11 10 11 10 11 11 9 8 8 8 8 9 10 11 10 9 9 9 10 10 12 11 12
7 3 1 1 1 1 3 3 5 4 3 1 3 2 3 7 5 4 5 4 6 4 5 6 11 10 7 8 7 7 6 5 4 4 5 5 5 6 7 7 7 6 8 7 7 8 7 7 7 7 6 6 8 9 9 9 10 10 10 10 10 10 11 9 9 9 10 12 12 10 10 9 9 10 9 8 9 11 12 10 10 11 11 11 12 12 12
1 2 1 1 2 2 3 4 4 1 3 4 4 4 7 7 10 8 5 4 2 3 5 5 9 10 6 5 5 5 5 5 4 4 5 6 6 6 7 7 8 7 6 6 7 7 7 7 6 7 6 6 9 9 9 9 10 10 10 10 10 9 9 8 8 9 8 9 9 10 11 10 9 8 10 11 11 13 12 9 8 10 12 13 13 11 10
3 10 8 9 6 3 6 8 9 6 5 5 6 6 7 7 9 8 10 7 6 6 5 3 5 10 7 5 5 6 5 5 5 5 5 5 6 6 6 5 6 7 7 7 7 6 6 6 6 7 5 8 8 8 8 9 10 10 11 10 10 9 8 8 8 9 8 8 9 10 11 11 13 13 11 13 13 13 15 16 15 18 17 15 15 12 12
9 5 6 13 7 1 4 11 9 9 7 8 10 10 11 8 7 9 13 11 6 6 6 5 6 7 7 6 5 6 5 6 5 5 6 5 5 6 6 6 7 7 7 6 6 7 6 6 7 6 6 8 8 8 8 9 10 10 11 10 8 8 9 8 9 10 10 10 10 10 9 11 11 13 16 16 14 17 20 23 24 24 22 25 28 26 18
2 3 11 12 7 7 3 5 10 10 9 10 8 7 7 10 10 8 7 8 13 8 5 6 6 7 7 5 5 7 6 5 5 5 5 4 5 4 5 6 5 5 6 6 6 7 6 6 6 6 7 7 7 7 8 8 9 9 9 8 8 8 8 9 11 10 9 10 11 11 11 10 10 12 13 15 19 17 14 15 21 26 26 25 25 25 27
6 2 5 8 5 5 3 3 5 8 9 10 11 12 10 9 5 5 7 5 3 10 11 7 5 5 7 6 6 6 5 4 4 4 3 4 5 5 5 5 5 5 5 6 5 5 5 5 7 7 7 7 6 7 8 9 10 9 9 8 9 9 9 10 10 11 10 10 11 10 11 12 11 11 12 13 15 18 20 18 17 19 24 27 26 23 24
5 6 7 7 5 5 5 7 3 4 8 7 5 5 5 5 6 7 6 6 6 5 8 7 7 4 4 6 5 5 6 5 3 4 3 2 2 2 4 3 3 3 4 4 4 4 5 7 6 6 7 8 7 6 8 8 8 8 8 8 9 8 9 10 11 10 9 10 11 11 11 11 12 11 11 12 13 15 17 18 19 15 14 17 20 24 27
4 9 12 9 4 1 4 9 9 12 9 5 7 8 7 8 8 8 7 8 7 7 7 7 7 6 5 4 5 4 5 4 3 4 3 1 1 2 1 2 3 3 4 5 5 5 7 6 6 6 6 7 6 6 7 8 8 8 8 8 7 9 14 12 9 9 9 9 10 11 12 12 12 12 13 13 13 14 14 16 17 18 17 17 17 17 17
10 8 4 10 8 11 13 10 1 9 9 9 11 11 9 8 9 9 9 8 6 6 6 4 6 7 7 4 5 5 4 3 4 2 1 2 1 2 1 2 3 4 3 4 3 4 4 4 6 7 8 7 6 7 9 9 9 9 8 8 8 8 8 9 8 8 8 9 10 10 12 12 13 13 14 14 14 13 14 14 14 15 16 16 15 15 21
8 5 2 2 2 4 6 9 8 10 9 6 7 8 10 11 7 8 7 7 8 7 6 3 2 3 5 5 4 4 4 4 3 2 1 0 2 1 1 2 3 4 3 2 3 4 4 5 6 7 8 7 7 9 9 9 8 8 8 8 8 8 8 8 8 8 9 9 10 11 13 14 14 13 14 14 14 14 14 14 14 14 14 15 14 14 12
4 2 1 2 3 10 14 9 11 11 10 10 12 9 8 11 10 9 9 9 7 9 6 7 6 5 4 3 3 4 4 4 3 1 1 1 1 1 2 3 4 4 2 2 3 4 4 5 5 7 7 6 8 9 9 8 8 9 9 10 9 9 8 9 9 10 10 9 10 14 12 11 12 13 14 14 14 14 14 15 16 15 14 14 14 13 13
4 3 4 3 3 3 9 11 9 9 10 8 9 10 7 5 7 8 10 9 7 7 6 6 5 6 5 5 4 3 2 2 2 0 0 1 1 2 3 3 1 2 2 2 3 3 3 5 5 6 6 6 8 8 8 8 8 8 8 8 7 12 17 19 15 11 9 10 11 10 10 11 11 12 14 14 14 13 13 13 15 15 14 13 12 13 11
9 5 6 3 1 3 4 5 9 10 10 8 8 11 15 15 15 16 13 11 10 9 10 9 7 6 5 5 4 3 2 1 1 1 1 1 1 0 1 1 1 3 3 3 3 3 3 4 6 7 6 7 8 7 7 7 7 8 8 8 9 9 10 16 11 11 10 11 11 11 11 11 11 11 11 13 13 14 13 13 15 15 14 14 13 12 11
11 4 1 1 1 1 4 5 10 11 11 13 16 12 9 6 2 5 8 9 9 8 8 7 6 6 5 5 4 3 2 1 0 0 0 0 1 1 2 2 2 2 3 3 2 2 2 4 7 7 7 7 7 7 6 7 7 7 8 8 8 9 9 11 12 10 10 10 9 9 9 10 10 11 12 13 13 14 13 14 15 15 14 14 14 14 11
19 17 18 19 19 16 16 14 10 10 9 6 3 5 6 6 5 6 9 8 8 8 8 7 7 6 5 5 4 3 3 4 3 3 3 1 1 2 3 3 2 2 3 3 2 2 3 3 5 6 7 7 7 7 7 7 7 7 8 8 8 8 9 9 10 9 9 9 9 11 11 12 11 11 12 13 13 13 14 15 15 14 13 12 11 9 11
20 19 13 16 17 17 18 18 17 15 14 13 9 7 6 7 7 8 8 10 11 8 7 8 7 7 7 5 5 4 5 5 4 3 2 1 1 2 2 3 4 4 4 4 2 2 3 4 5 6 7 7 7 6 7 8 8 7 8 8 8 8 8 9 9 9 10 10 10 10 10 10 11 11 12 12 12 13 13 13 13 13 12 11 10 9 8
9 5 2 7 10 8 6 7 12 17 17 17 15 13 12 10 10 10 12 9 8 9 9 10 9 7 7 6 6 6 6 4 4 3 2 1 1 0 1 2 2 3 3 4 2 1 4 4 7 10 7 6 7 7 7 7 7 7 8 8 7 7 8 8 9 8 9 9 10 10 9 12 12 11 11 11 11 11 12 12 12 11 10 10 9 9 8
7 11 8 9 10 11 9 9 12 13 13 11 11 12 11 10 11 7 7 9 9 9 9 9 9 9 8 7 5 4 4 4 4 4 2 1 1 1 0 0 0 0 1 2 3 3 5 5 8 12 7 4 6 6 8 12 7 6 6 6 6 6 7 7 7 7 8 8 9 9 11 10 9 9 10 9 10 11 11 11 12 11 10 9 9 8 8
6 6 8 9 9 10 8 5 7 12 11 10 5 6 12 12 10 10 10 9 9 9 8 8 8 7 7 5 5 5 4 4 4 2 2 1 1 2 1 3 1 1 0 3 3 4 4 6 9 7 4 5 5 6 8 13 12 7 5 6 6 6 7 7 7 7 8 7 9 8 8 8 9 9 9 9 9 10 10 10 11 10 10 10 10 9 8
4 2 5 4 5 7 7 4 5 8 13 16 12 10 9 11 10 10 9 8 7 7 8 8 7 7 7 7 7 5 4 3 3 3 1 1 2 3 2 4 4 2 2 3 4 5 4 4 5 4 4 5 5 5 7 10 11 6 6 5 6 5 6 6 6 7 7 8 7 7 8 8 8 9 9 9 9 9 10 11 11 10 10 10 10 9 9
7 7 8 7 8 8 9 8 6 6 4 8 16 16 13 13 11 10 9 8 6 7 7 8 9 8 7 7 6 6 4 3 3 3 2 2 1 1 1 2 4 4 4 5 4 4 4 6 4 3 4 5 4 5 6 9 9 6 5 5 5 5 5 6 6 6 7 7 7 8 7 7 8 9 9 9 9 9 9 9 9 9 9 9 9 9 9
8 9 8 8 9 8 9 11 10 6 8 9 8 11 11 12 11 11 10 10 8 7 8 7 8 7 7 7 7 5 3 1 2 2 2 4 4 2 4 3 2 0 3 3 3 2 4 4 4 4 4 5 4 6 6 8 6 4 5 5 5 5 5 5 5 6 6 7 8 7 7 6 7 7 8 8 9 9 9 9 8 8 8 9 9 9 8
8 8 8 8 8 9 9 9 11 12 8 8 9 10 10 9 11 11 10 8 8 6 6 5 6 8 7 6 5 3 2 1 1 1 4 6 5 7 3 3 1 1 6 5 4 3 2 3 4 5 5 5 4 9 10 7 5 5 5 5 5 5 5 5 5 5 6 6 5 6 7 6 6 6 6 7 7 8 9 9 8 8 8 7 8 8 8
11 12 11 11 10 10 11 11 12 14 13 9 8 9 10 9 9 10 9 8 8 8 8 6 7 7 6 6 6 5 5 1 1 0 0 4 9 8 4 1 1 3 7 5 4 2 4 3 4 4 7 8 7 11 10 5 4 5 5 4 5 5 5 5 5 5 5 5 5 6 6 6 6 6 6 6 7 7 7 7 8 8 8 7 7 7 7
11 10 11 12 12 11 11 12 12 13 15 10 7 8 10 9 9 11 11 10 9 8 9 8 7 7 6 6 6 6 4 3 3 2 3 1 1 1 3 2 2 4 7 6 3 4 4 4 4 7 10 11 11 11 6 3 4 5 4 4 5 5 5 5 5 5 5 6 5 6 6 7 6 6 6 6 6 6 7 6 7 7 7 7 6 6 6
10 10 11 12 13 12 11 11 14 14 11 10 10 9 9 10 10 10 10 10 9 8 7 7 7 7 7 6 6 5 5 5 5 5 4 2 2 1 2 1 4 3 6 7 5 4 4 4 6 10 9 11 11 9 4 4 5 5 4 5 5 5 5 5 6 5 5 5 5 6 6 5 5 5 5 6 6 6 6 7 7 7 7 7 7 7 7
10 10 11 12 13 11 9 10 9 10 13 12 12 8 8 9 9 8 6 9 10 7 7 7 7 7 7 6 3 2 2 4 5 5 4 3 2 2 1 3 4 4 8 9 3 5 5 7 10 10 10 11 10 5 3 4 5 4 5 5 4 6 5 5 5 5 5 5 6 6 5 6 5 5 6 5 6 6 6 7 7 6 5 6 6 6 6
11 11 11 11 11 11 12 11 11 13 11 9 12 12 9 9 10 8 7 8 9 8 5 5 5 5 5 6 7 6 5 1 1 4 5 3 1 2 3 4 6 7 7 5 5 5 5 5 7 10 10 11 10 3 4 5 5 4 6 5 5 5 6 5 5 5 5 5 7 7 7 7 6 6 6 6 6 6 6 6 5 5 6 6 6 6 6
11 13 12 13 16 14 14 15 14 11 8 7 8 8 9 10 8 6 5 6 7 5 4 3 4 5 4 3 2 1 4 5 4 1 2 4 0 0 2 2 4 7 9 7 8 7 10 11 11 11 10 10 7 4 6 4 4 5 4 6 4 6 5 6 6 5 6 5 5 5 5 5 5 5 5 6 6 6 6 6 6 6 5 5 5 5 5
7 11 12 12 13 14 14 13 11 9 8 8 8 8 8 9 8 7 5 6 7 6 5 4 4 3 2 3 3 3 2 1 1 2 1 2 1 3 4 4 7 7 6 4 6 5 7 9 10 10 11 9 5 5 5 5 5 5 5 5 6 5 6 5 6 6 6 6 6 5 5 6 6 6 6 6 6 6 7 7 6 6 5 6 6 6 5
10 9 9 9 10 10 10 9 7 6 7 9 8 7 7 7 7 5 4 5 5 6 3 3 3 3 4 3 2 1 1 1 0 0 1 2 2 2 3 3 4 7 7 6 4 6 5 8 9 9 8 4 5 4 5 6 5 5 5 6 5 5 6 7 7 7 6 6 6 6 6 6 6 7 8 6 6 6 6 6 6 8 11 8 6 6 5
9 8 8 6 6 6 6 5 6 7 8 8 7 7 6 6 6 6 5 4 4 5 3 2 2 3 3 3 2 1 1 0 1 2 1 2 1 3 4 3 3 5 6 6 5 6 6 5 5 6 6 5 5 5 4 5 5 5 5 5 5 5 5 6 6 6 5 6 5 6 6 6 6 7 7 7 7 7 7 7 7 6 6 6 6 6 6
8 8 10 9 9 8 8 9 8 7 6 6 7 6 6 6 6 5 2 3 4 5 5 5 1 1 1 4 2 1 1 1 2 1 2 3 2 3 5 5 4 5 5 5 6 6 6 6 6 7 7 6 5 5 6 7 6 6 5 6 5 5 6 7 6 6 6 6 6 6 7 6 6 7 7 7 6 7 7 7 7 6 6 6 6 7 7
Wind_Direction
230 134 161 165 156 177 175 177 165 164 177 168 180 209 220 135 193 225 239 187 230 249 165 212 209 197 204 211 228 220 231 262 287 347 317 294 272 274 281 280 272 276 293 300 319 337 342 357 3 354 359 2 3 352 328 329 341 351 335 19 15 16 15 329 280 270 276 273 273 269 268 260 254 255 260 264 268 262 253 253 249 250 254 255 260 260 253
228 161 148 193 159 151 122 182 178 177 170 186 194 211 216 195 216 229 238 154 229 243 181 210 223 217 215 226 243 349 262 239 236 298 253 247 251 250 202 179 233 237 250 284 291 315 24 37 25 18 12 12 7 9 2 354 357 352 9 20 64 37 306 266 268 270 266 276 273 262 249 253 273 294 294 289 276 272 261 254 256 254 256 253 251 257 262
249 216 159 126 183 152 182 208 188 181 185 193 200 210 219 215 234 242 257 275 277 255 156 209 234 228 257 89 246 229 239 254 238 230 237 239 245 252 104 205 237 228 253 5 26 31 19 17 15 15 6 357 351 3 2 358 357 349 8 11 24 9 300 277 280 271 254 245 233 256 299 321 325 324 317 304 294 283 276 264 260 262 255 260 254 251 252
268 185 171 188 91 83 147 158 176 193 193 203 214 211 212 178 212 234 243 263 256 262 136 205 212 191 207 229 228 229 242 234 230 231 244 247 245 260 345 279 299 18 30 34 37 33 19 9 10 11 7 359 4 3 350 354 347 346 6 12 12 3 332 320 331 346 343 341 355 355 353 353 348 338 328 324 315 304 298 296 282 263 263 260 263 260 254
227 302 162 130 109 75 293 239 208 199 202 205 208 231 239 202 198 208 208 233 244 222 164 218 211 155 219 231 225 230 239 247 234 231 234 247 295 346 360 360 357 1 24 42 47 33 23 13 8 359 351 358 1 343 350 340 343 1 8 17 21 23 8 10 5 360 356 359 352 351 350 341 340 339 339 331 327 329 318 310 311 298 283 276 270 264 253
242 3 119 125 103 207 226 222 211 183 192 195 182 204 217 221 183 210 211 231 248 236 140 205 222 192 210 220 240 221 223 242 257 260 249 235 254 62 50 43 52 46 52 49 44 37 18 358 350 335 338 346 330 325 318 326 0 13 38 29 39 23 12 9 2 356 355 351 346 338 333 332 333 331 328 317 311 305 303 307 303 295 288 280 275 270 261
162 165 118 99 206 230 230 324 134 188 198 180 197 216 216 216 211 228 250 259 262 251 212 207 222 217 251 303 306 329 355 310 251 266 9 70 98 92 87 72 57 60 62 58 55 40 21 5 357 360 354 353 337 357 355 22 32 40 39 33 30 19 14 9 6 1 354 344 333 326 323 323 323 319 315 309 309 306 302 295 295 290 290 290 280 274 270
58 89 165 200 233 230 304 296 194 176 173 193 196 245 251 241 209 211 232 240 243 246 248 228 177 192 209 87 55 18 360 16 359 74 77 76 86 86 79 81 57 61 66 77 73 60 12 18 8 17 360 338 357 6 7 47 33 36 29 28 17 9 6 3 360 354 348 339 331 328 327 325 324 315 312 306 303 307 302 291 279 278 278 267 273 274 269
176 179 200 218 335 352 290 237 193 162 163 157 172 218 245 225 210 197 218 235 244 251 253 241 142 126 96 182 334 18 20 29 49 82 84 86 81 91 77 78 72 62 59 71 60 70 57 44 33 17 348 337 29 57 53 38 42 33 28 24 12 2 358 353 350 346 345 340 336 336 334 328 319 311 307 304 297 291 289 282 284 280 272 267 263 265 267
149 133 180 48 233 239 239 222 130 165 165 170 183 178 264 233 208 201 209 228 236 241 251 239 169 134 185 273 245 347 353 37 84 72 85 82 82 76 83 75 73 63 59 72 66 74 66 56 39 7 346 16 52 53 44 34 32 28 27 17 2 356 348 345 339 337 336 334 330 327 326 322 315 308 298 287 283 283 282 290 284 274 276 276 266 257 261
152 201 208 208 205 232 221 247 189 199 188 151 127 159 244 259 199 200 197 221 233 236 238 224 119 159 219 249 198 239 50 53 72 91 79 82 82 75 69 72 66 59 53 82 80 63 50 39 10 4 5 32 50 47 38 33 31 27 19 3 357 348 338 331 328 325 324 324 320 315 313 310 309 307 306 302 298 289 277 276 277 281 276 275 275 262 249
196 182 210 227 215 243 254 222 242 220 152 124 105 201 250 233 123 282 178 204 223 228 219 137 147 171 222 241 190 149 124 103 71 88 94 79 72 65 62 54 53 59 51 88 54 43 37 19 351 4 6 33 48 43 33 34 32 23 8 353 339 329 326 326 323 326 324 321 313 309 308 303 300 294 294 297 296 297 291 277 285 289 277 274 280 278 259
218 221 246 299 287 274 233 199 181 139 159 140 169 215 230 202 206 242 188 188 177 127 135 150 170 238 218 123 128 142 162 106 75 65 76 87 86 80 63 53 54 82 71 67 65 58 40 13 7 8 15 33 39 33 27 32 26 9 353 339 337 330 326 325 325 324 321 315 316 310 300 301 297 293 291 293 298 298 299 300 296 297 296 294 289 289 285
213 213 223 233 256 230 177 235 174 188 126 198 211 193 73 133 147 6 164 139 163 135 127 138 113 141 129 102 110 113 112 108 107 96 90 85 76 76 83 65 56 69 74 66 63 53 37 26 19 17 20 38 36 29 30 31 12 349 346 342 337 333 330 330 327 327 328 324 319 315 314 313 313 307 296 283 287 294 296 298 301 300 300 301 301 298 299
168 172 212 145 231 233 143 134 113 211 169 233 138 134 92 142 154 133 107 123 157 132 90 101 121 125 122 120 115 117 116 106 103 93 80 65 60 45 34 36 30 38 50 45 45 44 30 26 24 17 23 32 30 24 32 15 354 348 348 346 342 338 335 335 336 332 331 332 327 327 321 319 314 308 310 311 304 300 298 302 300 300 299 302 302 299 300
184 189 200 202 210 125 205 158 186 202 213 158 154 136 120 188 167 144 124 90 148 141 126 130 125 128 125 123 126 115 113 115 113 101 82 77 62 54 52 51 27 26 38 39 41 38 34 27 24 21 22 28 22 27 18 356 348 352 352 351 343 342 341 337 334 333 331 328 324 321 319 317 313 308 311 312 306 300 303 300 304 304 301 301 296 294 294
166 196 212 257 296 151 191 43 260 234 101 141 156 130 144 151 202 179 125 135 135 138 128 126 134 134 150 148 161 140 149 135 127 108 92 67 57 47 43 36 29 29 32 30 27 29 32 27 22 24 21 23 18 19 2 352 357 359 354 350 348 344 341 337 335 330 326 325 323 320 319 319 315 313 310 313 309 307 304 296 293 292 290 293 289 286 289
349 338 140 94 49 312 291 354 299 165 138 45 142 135 134 192 155 170 147 152 145 146 143 128 142 144 157 145 150 141 136 133 128 120 103 84 70 61 51 43 33 34 40 43 30 19 20 25 19 19 19 20 21 3 350 359 4 357 351 347 343 339 335 331 330 325 321 319 318 316 314 309 301 297 298 302 300 298 297 288 285 281 285 288 286 284 282
138 237 163 138 189 136 188 194 2 359 134 184 167 158 147 154 155 160 160 153 159 158 164 149 150 156 160 146 146 139 135 124 125 110 93 76 63 49 45 33 26 29 34 33 27 19 14 12 16 9 12 19 17 359 6 8 359 352 345 336 329 328 330 325 322 321 316 315 316 313 311 308 301 297 292 289 289 287 286 288 286 282 281 282 285 286 285
167 239 49 247 36 218 218 195 169 178 166 69 50 67 84 115 114 113 129 115 121 130 136 148 139 143 148 146 148 148 146 135 115 96 77 65 59 49 49 39 30 36 34 30 19 14 8 4 1 357 353 12 17 15 9 2 354 347 339 335 332 323 321 320 317 319 315 313 314 310 311 309 305 304 298 288 287 286 291 292 294 291 286 284 282 282 291
290 25 157 115 36 326 260 228 248 226 154 137 103 104 116 126 123 117 80 62 97 106 116 119 129 123 116 85 114 119 121 112 94 72 63 53 47 41 40 34 34 36 26 24 18 12 1 355 346 343 338 16 17 7 5 359 349 348 337 331 322 315 313 316 315 316 310 310 309 308 307 306 294 283 293 299 291 283 272 267 261 276 286 281 276 278 277
192 210 196 159 124 228 232 223 209 184 164 143 136 127 123 135 123 124 110 85 54 72 61 88 126 129 123 104 101 101 91 83 72 55 48 44 40 39 37 43 37 34 23 24 9 6 351 342 339 326 356 14 5 2 2 356 354 347 337 329 323 321 322 318 314 314 311 308 313 313 312 311 310 305 282 270 272 283 290 284 266 259 264 271 277 283 279
221 217 147 183 188 149 222 193 177 163 164 152 156 166 157 151 152 148 136 124 94 75 52 31 99 113 114 110 103 100 89 68 61 53 46 36 30 26 22 32 25 23 18 13 4 355 340 339 322 338 14 358 355 358 1 358 355 346 336 327 320 319 323 323 321 319 314 316 313 310 307 309 310 309 311 307 286 273 272 281 285 280 272 271 275 275 273
271 196 177 184 185 192 210 175 163 163 163 161 165 167 165 162 160 158 153 155 147 133 110 67 45 84 95 90 101 102 87 73 65 55 41 45 40 36 31 42 17 12 7 6 357 342 331 320 326 3 2 348 353 357 0 359 353 342 336 328 320 320 320 313 315 315 311 309 309 308 306 307 306 307 307 306 306 298 280 271 283 290 289 281 276 277 279
222 202 176 186 164 73 47 113 143 155 163 164 168 176 173 156 142 136 134 119 120 139 138 114 82 61 96 95 90 97 103 87 75 48 43 48 38 40 35 22 10 4 353 344 329 320 312 348 9 356 345 341 350 359 359 358 347 339 329 322 307 306 305 307 308 309 310 309 308 306 306 308 309 307 305 305 306 310 312 303 286 278 283 288 288 282 281
121 107 83 77 74 96 108 77 58 162 176 170 135 126 113 118 126 115 105 109 108 112 119 116 117 91 94 111 106 99 101 98 79 76 71 54 46 44 33 2 349 336 338 325 323 317 1 19 359 346 334 332 344 355 0 347 338 323 315 308 301 301 307 311 311 309 311 309 306 304 300 299 300 299 295 293 293 296 301 307 312 303 282 271 280 291 292
112 137 112 68 49 156 230 164 191 191 177 139 133 128 120 112 103 93 81 66 67 82 101 102 107 111 97 85 92 105 125 101 87 93 89 99 78 52 354 323 325 337 334 326 317 350 14 0 346 328 319 319 334 353 347 334 322 316 305 303 301 301 302 302 298 298 297 298 299 300 301 300 297 296 294 292 290 291 291 296 299 301 307 303 296 286 283
164 186 163 170 187 186 212 219 10 145 141 142 140 134 131 115 114 114 113 113 104 91 84 96 120 129 124 119 119 120 102 103 117 105 106 113 51 359 326 322 343 341 323 306 326 17 9 347 334 323 315 315 333 343 336 328 323 315 312 310 307 303 301 300 295 290 291 295 298 298 298 297 297 294 294 293 290 285 283 283 283 288 291 291 294 294 283
195 177 44 342 258 155 92 94 109 125 122 106 115 124 135 133 142 142 148 147 144 136 123 114 101 108 113 121 122 131 134 135 135 140 122 360 299 300 327 2 353 335 315 319 15 8 356 341 326 320 309 319 337 334 324 320 312 310 309 309 306 301 298 296 294 291 291 293 292 293 292 292 293 292 292 291 287 287 286 285 287 287 286 292 298 297 282
149 62 27 68 122 134 132 140 154 157 147 151 145 159 165 149 154 180 163 150 158 154 145 133 131 131 123 121 132 144 149 158 157 154 180 249 301 329 35 15 7 341 335 21 354 346 339 323 318 308 308 323 328 318 316 311 310 304 306 304 301 300 298 299 298 298 296 292 290 294 292 290 290 292 293 291 289 287 290 293 294 294 293 294 293 291 294
113 63 68 64 107 163 163 162 149 154 152 156 159 154 170 184 176 166 174 163 151 139 144 148 144 133 133 141 133 138 142 131 133 160 289 315 345 6 48 19 22 321 320 307 306 317 318 311 306 304 305 317 311 308 309 310 311 312 308 307 301 304 304 304 301 298 297 296 295 293 291 289 283 284 285 288 292 292 292 291 293 292 292 291 290 291 291
124 82 64 44 52 128 118 130 151 165 170 165 152 178 183 177 189 192 178 177 179 160 143 146 154 155 144 134 139 133 136 117 73 13 333 333 315 71 23 326 272 287 286 279 291 311 318 313 313 305 314 310 308 307 310 313 313 313 309 308 307 305 301 301 298 296 296 294 292 287 281 280 280 279 285 290 291 292 294 296 295 295 293 294 294 294 294
131 108 273 232 63 95 188 208 177 182 167 182 201 196 185 194 161 145 161 150 135 146 148 146 145 134 136 137 129 125 111 102 74 332 82 328 329 339 320 318 302 271 277 274 279 293 310 314 307 309 309 304 308 312 315 315 313 309 307 306 302 299 300 301 302 301 297 290 283 278 282 288 293 298 301 304 305 303 302 300 298 297 294 293 294 292 289
177 190 196 191 178 183 194 205 202 195 204 214 188 159 172 169 153 140 137 141 140 146 160 153 140 139 134 122 124 121 126 116 130 173 181 222 263 298 308 320 325 305 282 293 312 314 315 305 305 304 303 310 316 319 318 318 312 310 308 311 307 309 311 309 309 300 289 294 298 310 313 314 314 313 312 312 312 312 311 308 305 301 297 296 295 303 313
192 202 203 193 193 193 187 179 181 190 184 185 194 193 179 154 149 147 143 149 160 158 144 137 135 131 122 126 129 148 148 163 174 162 192 217 255 292 318 347 349 5 344 330 310 279 299 308 294 295 312 319 318 316 316 317 315 315 315 313 315 314 312 314 315 319 323 321 320 316 319 318 316 317 317 319 320 318 314 312 310 310 313 318 325 334 345
186 172 127 164 190 191 179 181 181 180 179 187 189 179 169 165 151 151 157 159 138 135 136 134 131 126 135 145 153 160 167 177 171 173 185 208 236 258 346 347 349 6 340 326 286 349 340 313 323 333 335 320 319 316 315 318 317 322 323 323 316 316 317 323 322 325 325 326 327 327 323 322 322 322 324 327 325 324 318 317 315 318 324 334 336 343 348
197 191 185 179 180 179 179 175 172 173 181 176 159 155 155 157 160 147 128 135 142 141 141 138 136 146 157 162 153 156 157 170 165 166 173 174 146 137 185 234 308 279 334 323 297 358 328 314 323 336 331 316 309 310 313 327 331 328 322 315 313 320 323 323 329 327 327 331 332 329 332 333 333 331 334 337 334 329 326 324 326 327 331 336 343 346 354
188 183 179 173 169 167 164 159 153 148 133 119 118 146 157 149 146 144 145 142 142 145 142 144 146 144 134 132 142 151 162 156 155 161 163 163 177 130 197 166 218 169 225 236 284 318 295 315 329 330 314 308 303 308 314 329 339 335 322 317 323 320 326 329 328 329 331 328 333 331 335 339 338 336 335 339 337 333 330 331 331 334 336 342 345 345 351
138 73 87 99 104 119 120 97 116 146 159 156 147 135 139 139 139 135 139 143 145 142 138 141 137 129 142 143 146 148 154 157 148 143 155 191 202 165 196 200 199 195 214 259 280 273 286 306 324 314 304 295 303 298 314 330 342 338 326 320 321 324 329 329 331 328 329 331 329 338 342 339 342 339 335 338 336 329 331 336 337 339 345 345 348 351 354
150 153 150 138 131 135 124 123 123 128 126 143 148 151 154 144 145 139 135 139 152 149 145 145 145 146 149 148 149 150 169 165 164 152 169 172 152 193 288 287 245 244 264 270 278 268 293 323 321 289 285 291 304 310 323 333 342 332 326 324 321 325 326 326 326 331 330 332 336 343 344 346 346 341 338 339 332 334 336 336 342 346 346 348 351 353 356
155 143 149 145 140 138 139 137 132 124 124 127 127 132 140 140 137 136 148 151 154 146 153 154 145 147 153 155 157 165 174 165 159 180 165 132 136 131 138 186 217 291 282 270 264 282 315 314 310 310 298 301 299 327 324 333 336 327 323 321 323 325 325 328 332 335 332 333 333 333 337 344 346 346 344 340 337 337 335 335 341 348 351 355 352 352 354
155 138 132 134 137 137 131 126 124 117 113 117 123 124 127 134 138 144 141 135 139 145 143 150 146 147 151 146 141 142 157 193 182 185 175 176 180 159 164 232 222 291 302 312 305 310 313 311 302 309 297 302 312 323 331 334 326 317 315 316 316 318 320 320 324 322 325 323 320 320 326 335 343 344 343 340 339 338 336 336 336 340 349 353 355 356 355
151 153 148 139 134 134 137 139 136 131 124 123 128 128 128 123 122 124 129 134 137 141 139 138 133 127 128 133 138 148 174 165 112 26 301 248 214 193 164 213 310 304 314 321 305 314 305 296 305 291 306 319 318 322 329 332 319 309 308 309 315 316 316 314 312 316 320 322 324 327 326 328 340 343 341 341 336 334 336 337 338 337 340 341 344 348 353
148 145 146 142 142 144 139 131 127 125 124 129 131 126 124 124 131 136 140 142 145 147 147 147 141 141 142 143 138 153 177 179 170 146 101 350 360 269 197 185 286 307 327 307 299 301 302 301 298 295 308 319 319 321 333 326 304 303 301 307 308 311 311 313 311 316 318 321 323 321 320 326 330 332 333 328 327 329 327 324 330 334 334 337 341 341 343
147 146 142 144 141 139 141 144 143 140 133 128 124 123 126 130 134 139 140 144 149 154 150 150 149 145 146 151 162 177 180 188 173 153 126 132 131 217 199 342 327 325 306 308 300 300 298 292 294 306 311 315 316 321 328 311 303 302 306 306 303 304 305 308 309 309 309 310 310 310 313 316 316 319 319 316 319 319 320 323 324 329 329 332 335 339 340
135 134 137 136 140 141 137 128 116 118 125 120 109 96 92 119 134 135 136 143 147 157 160 155 147 153 152 157 172 188 201 218 218 211 203 164 165 196 309 343 316 312 308 308 300 297 284 292 301 305 308 312 313 327 320 302 301 303 299 299 299 300 301 300 302 300 301 303 305 304 308 307 312 311 310 309 312 314 312 318 317 316 323 322 323 327 328
135 136 140 137 126 123 122 123 128 126 122 116 125 134 136 118 115 112 131 138 139 145 142 139 143 168 170 157 152 133 122 124 288 229 218 249 10 33 343 330 311 306 302 295 282 280 283 291 297 301 305 307 308 315 306 299 297 294 296 294 294 293 295 294 297 295 299 298 302 307 309 310 306 305 307 309 308 309 310 313 311 313 316 316 317 319 326
144 142 140 135 132 132 130 134 137 141 140 135 128 120 122 109 117 120 122 120 126 129 132 146 155 172 181 188 189 167 162 138 104 323 162 168 240 34 319 305 285 291 297 295 293 292 295 295 295 299 302 303 301 296 291 290 287 284 285 284 287 287 287 290 294 295 294 294 300 302 302 300 299 300 300 301 298 303 301 302 301 305 306 306 304 310 309
130 128 127 127 130 135 138 141 131 124 127 121 121 120 122 123 119 119 125 127 128 138 156 171 180 190 197 188 167 198 219 238 135 182 198 149 280 293 280 285 298 298 292 284 286 282 286 289 295 299 299 296 289 281 276 272 276 278 275 275 272 274 281 280 275 273 276 284 284 289 286 289 291 298 297 297 297 296 298 298 297 298 300 303 303 300 297
124 126 128 140 141 145 147 139 131 127 120 124 125 128 136 129 123 148 150 150 162 155 155 197 224 225 204 211 217 196 160 145 134 171 244 260 255 250 273 278 278 287 288 284 284 284 287 296 300 298 292 279 277 273 268 268 266 268 266 270 276 278 273 278 282 286 285 287 286 282 281 282 284 286 286 289 288 288 289 291 293 295 302 301 296 296 300
141 141 143 135 118 98 71 64 105 114 123 119 127 134 137 134 133 137 146 153 139 159 194 240 272 240 217 217 232 267 225 205 231 252 265 270 270 280 282 276 277 279 284 283 279 285 290 289 282 279 279 279 273 274 269 269 266 271 276 280 275 278 281 281 281 282 274 274 277 281 281 285 285 285 283 280 284 286 287 288 290 292 293 291 294 294 294
94 81 56 65 77 70 77 74 91 106 108 117 126 131 126 122 126 120 138 159 155 168 167 154 169 315 178 172 156 245 261 208 217 252 269 274 278 274 275 283 285 285 280 277 276 274 272 270 273 280 282 278 272 271 276 281 280 278 275 272 277 277 278 281 280 281 282 283 281 282 283 281 283 285 283 283 281 284 287 287 286 287 288 287 288 290 293